Voltar ao catálogo

CAKRA-1

AtivoCiênciaSSO
NORAD 60510·PAYLOAD·🇮🇩 Indonesia
Este nome de satélite ainda não foi confirmado por fontes oficiais.

Lançado Aug 16, 2024 de Vandenberg Space Force Base

Loading…

Próximas Passagens (próximas 24 horas)

TLE

AtualizadoSource: Space-Track

Época: Sep 14, 2026, 04:35 UTC

1 60510U 24149AU  26257.19155545  .00011946  00000-0  27735-3 0  9997
2 60510  97.3684 341.7471 0002751 350.1839   9.9355 15.42518674116026

Acompanhe CAKRA-1 em tempo real com AllMySat

Download on the App Store